Regional Weather Roundup
Issued by NWS Charleston, SC

Current Version | Previous Version | Graphics & Text | Print | Product List | Glossary On
Versions: 1 2 3 4 5 6 7 8 9 10 11 12 13 14 15 16 17 18 19 20 21 22 23 24 25 26 27 28 29 30 31 32 33 34 35 36 37 38 39 40 41 42 43 44 45 46 47 48 49 50
000
ASUS42 KCHS 020111
RWRCHS
REGIONAL WEATHER ROUNDUP
NATIONAL WEATHER SERVICE CHARLESTON SC
900 PM EDT WED APR 01 2015

NOTE: "FAIR" INDICATES FEW OR NO CLOUDS BELOW 12,000 FEET WITH NO
SIGNIFICANT WEATHER AND/OR OBSTRUCTIONS TO VISIBILITY.

NOT ALL STATIONS ARE QUALITY CONTROLLED BY THE NATIONAL
WEATHER SERVICE. USE DATA WITH CAUTION...ESPECIALLY
DEWPOINT OBSERVATIONS.

SCZ027-030-031-034>040-042>050-020200-
...SOUTHEAST SOUTH CAROLINA...

CITY           SKY/WX    TMP DP  RH WIND       PRES   REMARKS
N CHARLESTON   CLEAR     58  52  80 E9        30.18R
WATERFRONT PRK   N/A     59 N/A N/A E15         N/A
MOUNT PLEASANT FAIR      57  54  88 CALM      30.18R
PINOPOLIS        N/A     61  52  72 VRB3      30.07R
MONCKS CORNER  FAIR      59  50  72 SE5       30.18R
SUMMERVILLE    FAIR      59  52  77 E7        30.18R
BEAUFORT MCAS  CLEAR     61  55  81 E9        30.16R
BEAUFORT ARPT  FAIR      61  55  82 E13G18    30.16R
HILTON HEAD IS   N/A     61  57  88 NE10      30.17R
WALTERBORO     CLEAR     59  52  77 SE8       30.17R
ALLENDALE      FAIR      64  55  72 SE10      30.14R

...SOUTHERN MIDLANDS AND PEE DEE...

CITY           SKY/WX    TMP DP  RH WIND       PRES   REMARKS
GEORGETOWN     NOT AVBL
KINGSTREE      NOT AVBL
ORANGEBURG     CLEAR     65  49  56 SE9       30.14R
BARNWELL       FAIR      70  57  64 SE10      30.13R
AIKEN          FAIR      66  41  39 E7        30.14R HAZE
MANNING        FAIR      59  43  55 SE3       30.17R
COLUMBIA       PTCLDY    66  44  45 E7        30.12R
SUMTER         CLEAR     62  44  51 SE14      30.13R
FLORENCE       CLEAR     62  46  55 SE13      30.17R
MYRTLE BEACH   CLEAR     57  48  72 E10       30.22R
N MYRTLE BEACH CLEAR     56  48  74 E8        30.21R

$$

GAZ063-065-086>088-099>101-113>116-118-119-134>141-150-020200-
...SOUTHEAST GEORGIA...

CITY           SKY/WX    TMP DP  RH WIND       PRES   REMARKS
SAVANNAH ARPT  PTCLDY    61  55  81 E10       30.15R
HUNTER AAF     MOCLDY    61  58  91 E10       30.12R
FORT STEWART   CLOUDY    63  58  85 E7        30.11R
STATESBORO     MOCLDY    64  57  78 E13       30.13R
SYLVANIA       PTCLDY    63  56  79 SE10G18   30.14R
CLAXTON        MOCLDY    66  59  77 E9G16     30.11R

...CSRA...CENTRAL AND FAR SOUTHEAST GEORGIA...

CITY           SKY/WX    TMP DP  RH WIND       PRES   REMARKS
THOMSON        PTCLDY    70  55  59 CALM      30.13R
AUGUSTA-BUSH   CLEAR     68  47  46 SE7       30.09R
AUGUSTA-DANIEL CLEAR     72  46  39 E8        30.10R
SWAINSBORO     FAIR      72  50  46 CALM      30.08R
VIDALIA        PTCLDY    70  59  68 S5        30.08R
EASTMAN        FAIR      67  61  80 CALM      30.10R
HAZLEHURST     FAIR      66  61  82 S3        30.07R
ALMA           CLEAR     65  57  75 CALM      30.08R
WAYCROSS       CLEAR     71  62  71 SE9       30.09R
JESUP          FAIR      68  59  73 SE6       30.12R
BAXLEY         FAIR      68  61  77 CALM      30.08R
BRUNSWICK      CLEAR     63  57  82 NE5       30.13R
SAINT SIMONS   CLEAR     63  59  87 NE6       30.12R

$$

SCZ027-028-034-036>038-045-046-048>050-GAZ119-141-020200-
...LAKE AND SUPPLEMENTAL COASTAL OBSERVATIONS...

STATION/POSITION TIME  TEMP    WIND        PRES    WAVE   SWELL
                       AIR SEA DIR/SP/G            HT/PER HT/PER/DIR
                 (UTC) (F)     (DEG/KT/KT) (MB)    (FT/S) (FT/S/D)
UPR LAKE MARION  NOT AVBL
WINYAH BAY       NOT AVBL
LAKE MURRAY      0000   70     100/  7/  9 1018.6R
ACE BASIN NERRS  NOT AVBL
FORT PULASKI     0000   61 62   60/ 16/ 20 1020.2R
SAPELO ISLAND    NOT AVBL

$$

ANZ835-935-AMZ111-154-330-350-352-354-370-450-454-472-020200-
...C-MAN AND BUOY OBSERVATIONS...

STATION/POSITION TIME  TEMP    WIND        PRES    WAVE   SWELL
                       AIR SEA DIR/SP/G            HT/PER HT/PER/DIR
                 (UTC) (F)     (DEG/KT/KT) (MB)    (FT/S) (FT/S/D)
BUOY 41004       0050   64 68   60/ 19/ 23 1020.6R   7/ 7   2/11
BUOY 41008       0050   64 62   80/ 12/ 14 1019.8R   2/ 3
FOLLY BEACH CMAN 0000   60      70/ 15/ 18 1020.9R
CAPERS NEARSHORE NOT AVBL
FRIPP NEARSHORE  0000   61      80/ 12/ 16 1019.7R


STATION/POSITION TIME  TEMP    WIND        PRES    WAVE   SWELL
                       AIR SEA DIR/SP/G            HT/PER HT/PER/DIR
                 (UTC) (F)     (DEG/KT/KT) (MB)    (FT/S) (FT/S/D)
5E ST. MARYS GA  0021      63                N/A     1/ 3
FRYING PAN BUOY  0050   60 63   80/ 17/ 21 1022.9R   5/ 5   2/100/11
BUOY 41025       NOT AVBL
CAPE LOOKOUT NC  0000   53      40/ 18/ 21 1022.8R
BUOY 41002       0050   65 69   30/ 17/ 21 1020.9R   7/ 8   2/270/11
BUOY 41010       0020   74 76  290/  8/ 10 1019.1R
ST AUGUSTINE FL  0100   64 63  140/  2/  3 1020.1R


$$


USA.gov is the U.S. government's official web portal to all federal, state and local government web resources and services.